[[{"header":{"parameterUnit":"m.s-1","parameterCategory":1,"la1":30.2991,"la2":30.254,"lo1":-89.0895,"lo2":-89.0444,"dy":0.0017,"dx":0.0017,"nx":28,"ny":28,"refTime":"2024-06-26T21:00:00:Z","depth":0,"parameterNumber":2,"parameterNumberName":"U-component_of_WINDS"},"data":[0,0,0,0,0,0,0,0,0,0,0,0,0,0,0,0,0,0,0,0,0,0,0,0,0,0,0,0,0,0,0,0,0,0,0,0,0,0,0,0,0,0,0,0,0,0,0,0,0,0,0,0,0,0,0,0,0,0,5.4021,5.4023,0,5.4207,5.4209,5.4211,5.4145,5.4141,5.4136,5.4132,5.4325,5.4333,5.4342,0,0,0,0,0,0,0,0,0,0,0,0,0,5.3609,5.3617,5.4021,5.4023,5.4026,5.4206,5.4209,5.4212,5.4145,5.414,5.4135,5.4131,5.4322,5.4332,5.4343,0,0,0,0,0,0,0,0,0,0,0,0,0,5.3791,5.362,5.4021,5.4014,5.4016,5.4206,5.4209,5.4212,5.4147,5.414,5.4134,5.4128,5.4318,5.4331,5.4344,5.4553,0,0,5.4386,5.4392,0,0,0,0,0,0,0,0,5.3781,5.3806,5.4013,5.4015,5.4017,5.4146,5.4134,5.4326,5.4148,5.4097,5.4132,5.4125,5.427,5.4287,5.4336,5.4561,5.457,5.4387,5.4395,5.4401,5.4405,0,0,0,0,0,0,0,5.3768,5.3798,5.4094,5.4016,5.4019,5.4002,5.4021,5.417,5.4216,5.4101,5.4097,5.4119,5.427,5.4323,5.434,5.4573,5.4387,5.4398,5.4407,5.4412,5.4975,5.4981,0,0,0,0,0,0,5.3755,5.3788,5.4089,5.41,5.3881,5.4015,5.4036,5.4111,5.4215,5.4224,5.4124,5.4116,5.4303,5.4324,5.4347,5.4594,5.4401,5.4413,5.4421,5.4968,5.4976,5.4983,0,0,0,0,0,0,5.3746,5.3782,5.4081,5.3943,5.398,5.4029,5.4113,5.4118,5.4171,5.4232,5.424,5.417,5.4299,5.4328,5.4501,5.46,5.4419,5.4432,5.496,5.497,5.498,5.5092,0,0,0,0,0,0,5.3734,5.3779,5.3859,5.3945,5.3987,5.4233,5.412,5.4126,5.4194,5.4184,5.4277,5.4287,5.4296,5.4481,5.4514,5.4615,5.4442,5.4951,5.4964,5.4977,5.508,5.5105,5.5127,0,0,0,0,0,5.372,5.3885,5.3863,5.39,5.4088,5.4239,5.4263,5.427,5.4202,5.4282,5.4321,5.4284,5.4584,5.4499,5.4536,5.4643,5.4945,5.4961,5.4976,5.5069,5.51,5.5126,0,0,0,0,0,0,5.381,5.3896,5.3873,5.4071,5.4148,5.4227,5.4328,5.4303,5.4401,5.4388,5.4394,5.4415,5.4593,5.4636,5.454,5.4848,5.4754,5.4778,5.4813,5.4843,5.4866,5.4851,5.4453,0,0,0,0,0,5.3853,5.3968,5.4037,5.4204,5.4244,5.428,5.4346,5.4344,5.4425,5.4457,5.4509,5.4589,5.4701,5.4774,5.4881,5.5086,5.5104,5.5178,5.5201,5.522,5.5239,5.5348,5.538,5.5034,5.5034,5.5034,0,0,5.3942,5.4003,5.4076,5.4223,5.4283,5.4401,5.4308,5.4438,5.4525,5.4477,5.4642,5.4684,5.4773,5.4962,5.5048,5.5003,5.5339,5.524,5.5254,5.5264,5.5367,5.54,5.5429,5.5045,5.5043,5.5041,0,0,5.4165,5.4224,5.4368,5.4429,5.452,5.4542,5.4577,5.4661,5.4685,5.4852,5.4817,5.4922,5.5116,5.5179,5.5237,5.5482,5.545,5.5517,5.5639,5.5745,5.5772,5.5796,5.588,5.5911,5.5537,5.5538,5.5538,0,5.4265,5.4441,5.4446,5.4578,5.4643,5.4604,5.4749,5.4808,5.493,5.4976,5.4923,5.5163,5.5221,5.5423,5.5482,5.5532,5.557,5.5506,5.5767,5.5792,5.5814,5.5895,5.5927,5.5545,5.5544,5.5543,5.5543,0,5.4558,5.4681,5.4787,5.4903,5.498,5.5119,5.5143,5.5221,5.5213,5.5241,5.5409,5.5477,5.5595,5.5644,5.5638,5.5845,5.5813,5.5765,5.567,5.5854,5.593,5.5961,5.5555,5.5553,5.555,5.5549,0,0,5.4843,5.4958,5.4997,5.5047,5.5144,5.5239,5.5375,5.5489,5.5555,5.564,5.5752,5.5916,5.5871,5.5937,5.5938,5.6031,5.6217,5.5971,5.5973,5.6011,5.6445,5.6479,5.6515,5.6197,5.6203,5.6208,5.6437,0,5.5071,5.5308,5.5315,5.5532,5.5644,5.5608,5.5726,5.5798,5.5827,5.5927,5.596,5.6074,5.6007,5.6046,5.6137,5.6175,5.6304,5.6159,5.6301,5.6306,5.6276,5.6555,5.6592,5.6805,5.6467,5.6472,5.6476,0,5.5369,5.5461,5.5688,5.5766,5.5813,5.5919,5.6023,5.6119,5.6199,5.6214,5.6287,5.6273,5.6411,5.6314,5.6503,5.6404,5.6463,5.649,5.6499,5.651,5.64,5.6571,5.6873,5.6904,5.6523,5.6519,5.6516,0,5.5549,5.5731,5.5889,5.5935,5.603,5.6105,5.6148,5.6222,5.629,5.6381,5.6424,5.6531,5.6589,5.6672,5.6688,5.6616,5.6876,5.6781,5.6891,5.689,5.6945,5.6941,5.7258,5.6988,5.6988,5.6987,5.6986,0,5.5802,5.5942,5.5971,5.6069,5.6224,5.623,5.6384,5.6422,5.6487,5.6591,5.6568,5.6665,5.6681,5.6783,5.6796,5.6949,5.6976,5.6991,5.6992,5.6991,5.6989,5.7028,5.7012,5.6996,5.6994,5.6992,5.6991,0,5.6029,5.6055,5.6225,5.6301,5.6323,5.6433,5.6498,5.6591,5.6617,5.6748,5.678,5.6822,5.6939,5.6963,5.7104,5.7113,5.7293,5.7282,5.7265,5.7263,5.737,5.7359,5.7721,5.7767,5.747,5.7473,5.7475,0,5.6187,5.6293,5.638,5.6447,5.6493,5.6602,5.667,5.6681,5.6752,5.685,5.6931,5.7046,5.7138,5.7328,5.7371,5.7477,5.7466,5.7585,5.7482,5.7476,5.7464,5.7456,5.7465,5.7604,5.7608,5.761,5.7612,0,5.6464,5.6471,5.6569,5.6672,5.6753,5.6835,5.6913,5.6969,5.699,5.7072,5.7191,5.7262,5.7404,5.7518,5.7624,5.7668,5.7644,5.7645,5.7675,5.7674,5.7659,5.7665,5.7316,5.7636,5.7634,5.7632,5.7631,5.763,5.6659,5.6751,5.6825,5.6935,5.6994,5.7066,5.7156,5.7193,5.7292,5.7407,5.7408,5.7538,5.7613,5.7753,5.7804,5.7905,5.7867,5.7912,5.7923,5.7933,5.7941,5.7645,5.7925,5.7924,5.7924,5.7923,5.7923,0,5.6932,5.6977,5.7078,5.7186,5.7272,5.7241,5.7325,5.7399,5.7513,5.7585,5.7676,5.7811,5.7921,5.7972,5.808,5.8151,5.8142,5.8179,5.8172,5.8182,5.7971,5.7932,5.8184,5.8184,5.8184,5.8184,5.8184,5.8183,5.7084,5.7235,5.7251,5.7431,5.7476,5.7602,5.7652,5.7718,5.7775,5.7927,5.8018,5.805,5.8113,5.8225,5.8324,5.8336,5.8375,5.8417,5.8423,5.8224,5.8198,5.8172,5.8136,5.8426,5.8426,5.8626,5.8628,5.8629]},{"header":{"parameterUnit":"m.s-1","parameterCategory":1,"la1":30.2991,"la2":30.254,"lo1":-89.0895,"lo2":-89.0444,"dy":0.0017,"dx":0.0017,"nx":28,"ny":28,"refTime":"2024-06-26T21:00:00:Z","depth":0,"parameterNumber":3,"parameterNumberName":"V-component_of_WINDS"},"data":[0,0,0,0,0,0,0,0,0,0,0,0,0,0,0,0,0,0,0,0,0,0,0,0,0,0,0,0,0,0,0,0,0,0,0,0,0,0,0,0,0,0,0,0,0,0,0,0,0,0,0,0,0,0,0,0,0,0,3.1832,3.1833,0,3.1872,3.1872,3.1873,3.1817,3.1815,3.1813,3.1811,3.185,3.1853,3.1856,0,0,0,0,0,0,0,0,0,0,0,0,0,3.1706,3.1709,3.1832,3.1833,3.1833,3.1872,3.1872,3.1873,3.1817,3.1815,3.1813,3.181,3.1849,3.1853,3.1856,0,0,0,0,0,0,0,0,0,0,0,0,0,3.1755,3.171,3.1832,3.181,3.1809,3.1872,3.1872,3.1873,3.1818,3.1815,3.1812,3.1809,3.1848,3.1852,3.1857,3.1942,0,0,3.187,3.1872,0,0,0,0,0,0,0,0,3.1752,3.1759,3.1813,3.1812,3.181,3.1836,3.1842,3.1896,3.1819,3.1814,3.1811,3.1808,3.1848,3.1852,3.1866,3.1944,3.1946,3.187,3.1873,3.1875,3.1876,0,0,0,0,0,0,0,3.1749,3.1757,3.1848,3.1814,3.1812,3.1798,3.1801,3.1852,3.1847,3.1815,3.1811,3.1816,3.1847,3.1862,3.1867,3.1946,3.187,3.1874,3.1877,3.1878,3.2095,3.2098,0,0,0,0,0,0,3.1748,3.1755,3.1846,3.1849,3.1773,3.1802,3.1806,3.1831,3.1847,3.1846,3.1819,3.1813,3.1856,3.1862,3.1868,3.1968,3.1875,3.1879,3.1881,3.2092,3.2095,3.2099,0,0,0,0,0,0,3.1746,3.1757,3.1845,3.1801,3.1811,3.1808,3.1836,3.1833,3.1849,3.185,3.1848,3.1835,3.1854,3.1862,3.1924,3.1968,3.1881,3.1885,3.2088,3.2093,3.2097,3.2169,0,0,0,0,0,0,3.1742,3.1756,3.179,3.1802,3.1814,3.1902,3.1839,3.1836,3.1856,3.185,3.1865,3.1865,3.1852,3.1918,3.1928,3.1973,3.1888,3.2084,3.209,3.2096,3.2163,3.2176,3.2187,0,0,0,0,0,3.1738,3.1809,3.1792,3.1803,3.1855,3.1904,3.1911,3.1896,3.186,3.1893,3.1893,3.1864,3.1962,3.1925,3.1936,3.1982,3.2081,3.2088,3.2095,3.2158,3.2173,3.2187,0,0,0,0,0,0,3.1801,3.181,3.1791,3.1868,3.1886,3.1895,3.1936,3.1913,3.1941,3.1934,3.1913,3.1917,3.1983,3.1989,3.1947,3.2065,3.2015,3.2025,3.2059,3.2074,3.2086,3.2083,3.1892,0,0,0,0,0,3.1824,3.1864,3.1869,3.1936,3.1946,3.194,3.196,3.1947,3.1964,3.1972,3.1977,3.1994,3.2028,3.2052,3.2083,3.2164,3.2165,3.2201,3.2213,3.2223,3.2231,3.2272,3.2288,3.2122,3.2122,3.2122,0,0,3.1872,3.1881,3.1908,3.1949,3.1961,3.2002,3.1946,3.1992,3.2022,3.1978,3.2037,3.2042,3.2059,3.2131,3.2162,3.2137,3.2277,3.2232,3.224,3.2243,3.2281,3.2297,3.2311,3.2127,3.2126,3.2125,0,0,3.1979,3.1991,3.2048,3.2061,3.208,3.2075,3.2089,3.2101,3.2102,3.2161,3.2129,3.2163,3.2224,3.2237,3.2252,3.2363,3.2337,3.2374,3.2437,3.2477,3.249,3.2502,3.254,3.2554,3.2383,3.2383,3.2383,0,3.2036,3.2097,3.2079,3.2127,3.2146,3.2108,3.2165,3.2178,3.2207,3.222,3.2192,3.2265,3.2275,3.2348,3.2375,3.2389,3.2403,3.2372,3.249,3.2501,3.2512,3.2548,3.2563,3.2387,3.2387,3.2386,3.2386,0,3.2165,3.2207,3.225,3.2279,3.2302,3.2354,3.2343,3.2369,3.2353,3.2351,3.241,3.242,3.2453,3.2469,3.2455,3.254,3.2524,3.2494,3.2443,3.2532,3.2566,3.258,3.2393,3.2392,3.2391,3.2389,0,0,3.2314,3.2331,3.2347,3.2359,3.2377,3.2409,3.2458,3.249,3.2512,3.2533,3.2573,3.2624,3.2595,3.2612,3.2598,3.2634,3.272,3.2599,3.2599,3.262,3.2813,3.2835,3.2852,3.2702,3.2705,3.2707,3.2811,0,3.242,3.2506,3.2491,3.2574,3.2612,3.2577,3.262,3.2635,3.2633,3.2665,3.2663,3.2699,3.2659,3.2669,3.2703,3.2702,3.2758,3.2695,3.2738,3.274,3.2734,3.2869,3.2893,3.2991,3.2824,3.2826,3.2828,0,3.2556,3.2581,3.2668,3.2679,3.2694,3.2733,3.276,3.2791,3.2807,3.2803,3.2822,3.2801,3.2849,3.2798,3.2863,3.282,3.2837,3.2839,3.2843,3.2846,3.2789,3.2875,3.3022,3.3036,3.2849,3.2847,3.2846,0,3.2654,3.271,3.2769,3.278,3.2794,3.2822,3.2829,3.2842,3.2862,3.2885,3.2898,3.2927,3.2942,3.2965,3.2952,3.2916,3.3019,3.2967,3.3016,3.3016,3.3039,3.3037,3.3189,3.3051,3.3051,3.3051,3.305,0,3.2774,3.2828,3.2813,3.2849,3.2909,3.2891,3.2949,3.2952,3.2963,3.2999,3.297,3.3003,3.2984,3.3016,3.3006,3.3061,3.3068,3.3066,3.3062,3.3068,3.3068,3.3078,3.3071,3.3055,3.3054,3.3053,3.3052,0,3.2894,3.2886,3.2948,3.2956,3.2959,3.3002,3.3008,3.3041,3.3038,3.3082,3.3092,3.3086,3.3121,3.3111,3.315,3.3143,3.3211,3.32,3.3206,3.3203,3.3252,3.3247,3.3415,3.3436,3.3285,3.3287,3.3288,0,3.2971,3.3012,3.3024,3.3045,3.3054,3.309,3.311,3.3093,3.3114,3.3135,3.3165,3.3198,3.3224,3.3282,3.3281,3.3309,3.3298,3.3355,3.3302,3.3306,3.3297,3.3295,3.3298,3.3365,3.3367,3.3368,3.3369,0,3.3107,3.3101,3.3131,3.316,3.3184,3.3205,3.3224,3.3243,3.3228,3.3253,3.3289,3.3309,3.3348,3.3381,3.3407,3.3413,3.3388,3.3386,3.3398,3.3404,3.3406,3.3405,3.3234,3.3382,3.3381,3.338,3.3379,3.3379,3.3207,3.3241,3.3255,3.3289,3.3301,3.3319,3.335,3.335,3.338,3.341,3.3399,3.344,3.3453,3.3485,3.3495,3.3526,3.3504,3.3523,3.3527,3.3532,3.3537,3.3402,3.3531,3.353,3.353,3.353,3.3529,0,3.3341,3.3348,3.3379,3.3406,3.3432,3.3407,3.3426,3.345,3.3487,3.3501,3.3527,3.3567,3.3599,3.3599,3.3628,3.3653,3.3642,3.3661,3.3659,3.366,3.3556,3.3542,3.3669,3.3669,3.3669,3.3669,3.3669,3.3669,3.3414,3.347,3.3465,3.3526,3.3532,3.3572,3.3585,3.3601,3.3612,3.3659,3.3685,3.3686,3.3694,3.3723,3.375,3.3749,3.3761,3.3784,3.3779,3.3682,3.3668,3.3654,3.3641,3.3787,3.3787,3.388,3.3881,3.3882]}]]